Weather History for Dutch Harbor, AK

Change the Weather History Date:

Wednesday, January 29, 2014

  Actual Average Record
Temperature  
Mean Temperature 40 °F -  
Max Temperature 43 °F 34 °F 87 °F (1997)
Min Temperature 37 °F 26 °F 15 °F (1987)
Degree Days  
Heating Degree Days 25    
Moisture  
Dew Point 37 °F    
Average Humidity 88    
Maximum Humidity 100    
Minimum Humidity 81    
Precipitation  
Precipitation 1.12 in - - ()
Sea Level Pressure  
Sea Level Pressure 29.38 in    
Wind  
Wind Speed 15 mph (West)    
Max Wind Speed 34 mph    
Max Gust Speed 47 mph    
Visibility 6 miles    
Events Rain    
Averages and records for this station are not official NWS values.
T = Trace of Precipitation, MM = Missing Value Source: NWS Daily Summary

Daily Weather History Graph

Daily Weather History Graph

Search for Another Location

Airport:

Trip Planner

Search our weather history database for the weather conditions in past years. The results will help you decide how hot, cold, wet, or windy it might be!

Date:

Astronomy

Jan. 29, 2014 Rise Set
Actual Time 9:57 AM AKST 6:42 PM AKST
Civil Twilight 9:18 AM AKST 7:21 PM AKST
Nautical Twilight 8:35 AM AKST 8:04 PM AKST
Astronomical Twilight 7:54 AM AKST 8:45 PM AKST
Moon 8:45 AM AKST (1/29) 5:59 PM AKST (1/29)
Length of Visible Light 10h 03m
Length of Day
8h 44m
Waning Crescent, 2% of the Moon is Illuminated
Jan 29
Waning Crescent
Jan 30
New
Feb 6
First Quarter
Feb 14
Full
Feb 22
Last Quarter

Hourly Weather History & Observations

Time (AKST) Temp. Windchill Dew Point Humidity Pressure Visibility Wind Dir Wind Speed Gust Speed Precip Events Conditions
12:15 AM 42.8 °F 36.2 °F 39.2 °F 87% 29.35 in 10.0 mi SE 12.7 mph - N/A   Overcast
12:56 AM 43.0 °F 37.2 °F 39.0 °F 86% 29.37 in 10.0 mi SE 10.4 mph - N/A   Overcast
1:56 AM 43.0 °F 36.4 °F 37.9 °F 82% 29.36 in 10.0 mi SE 12.7 mph 20.7 mph 0.00 in Rain Light Rain
2:56 AM 43.0 °F 36.4 °F 37.9 °F 82% 29.35 in 10.0 mi SE 12.7 mph - 0.01 in Rain Light Rain
3:54 AM 42.8 °F 34.5 °F 37.4 °F 81% 29.32 in 9.0 mi SE 18.4 mph - 0.04 in Rain Light Rain
3:56 AM 43.0 °F 34.8 °F 37.9 °F 82% 29.33 in 10.0 mi SE 18.4 mph - 0.04 in Rain Light Rain
4:56 AM 43.0 °F 35.1 °F 39.0 °F 86% 29.33 in 7.0 mi SE 17.3 mph - 0.05 in Rain Light Rain
5:44 AM 42.8 °F 35.1 °F 39.2 °F 87% 29.31 in 7.0 mi SE 16.1 mph - 0.05 in Rain Light Rain
5:56 AM 43.0 °F 36.4 °F 39.0 °F 86% 29.33 in 6.0 mi SE 12.7 mph 23.0 mph 0.05 in Rain Light Rain
6:56 AM 43.0 °F 36.0 °F 39.0 °F 86% 29.32 in 4.0 mi SE 13.8 mph 20.7 mph 0.06 in Rain Light Rain
7:51 AM 42.8 °F 36.2 °F 39.2 °F 87% 29.30 in 7.0 mi SE 12.7 mph - 0.07 in Rain Light Rain
7:56 AM 43.0 °F 36.4 °F 39.0 °F 86% 29.31 in 6.0 mi SE 12.7 mph 18.4 mph 0.07 in Rain Light Rain
8:26 AM 42.8 °F 39.3 °F 39.2 °F 87% 29.30 in 6.0 mi Variable 5.8 mph - 0.02 in Rain Light Rain
8:50 AM 42.8 °F 34.5 °F 39.2 °F 87% 29.29 in 6.0 mi SE 18.4 mph - 0.04 in Rain Light Rain
8:56 AM 43.0 °F 34.8 °F 39.0 °F 86% 29.31 in 6.0 mi SE 18.4 mph 23.0 mph 0.04 in Rain Light Rain
9:56 AM 43.0 °F 36.0 °F 39.0 °F 86% 29.31 in 7.0 mi ESE 13.8 mph - 0.06 in Rain Light Rain
10:56 AM 43.0 °F 36.4 °F 39.0 °F 86% 29.32 in 6.0 mi SSE 12.7 mph 19.6 mph 0.14 in Rain Light Rain
11:51 AM 41.0 °F 38.0 °F 39.2 °F 93% 29.31 in 3.0 mi SSW 4.6 mph - 0.08 in Rain Light Rain
11:56 AM 41.0 °F 39.0 °F 39.0 °F 93% 29.33 in 3.0 mi SSW 3.5 mph - 0.08 in Rain Light Rain
12:38 PM 39.2 °F 35.0 °F 39.2 °F 100% 29.31 in 5.0 mi NW 5.8 mph - 0.07 in Rain Light Rain
12:56 PM 39.0 °F 33.4 °F 37.0 °F 93% 29.33 in 6.0 mi WNW 8.1 mph - 0.08 in Rain Light Rain
1:56 PM 39.0 °F 34.8 °F 37.0 °F 93% 29.32 in 6.0 mi NW 5.8 mph - 0.06 in Rain Light Rain
2:38 PM 39.2 °F 31.6 °F 37.4 °F 93% 29.29 in 4.0 mi West 12.7 mph - 0.03 in Rain Light Rain
2:56 PM 39.9 °F 32.9 °F 37.0 °F 89% 29.31 in 3.0 mi West 11.5 mph - 0.04 in Rain Light Rain
3:56 PM 41.0 °F 36.4 °F 37.9 °F 89% 29.33 in 5.0 mi NW 6.9 mph - 0.05 in Rain Light Rain
4:08 PM 39.2 °F 32.0 °F 37.4 °F 93% 29.31 in 6.0 mi West 11.5 mph - 0.02 in Rain Light Rain
4:56 PM 41.0 °F 36.4 °F 37.9 °F 89% 29.36 in 5.0 mi Variable 6.9 mph 18.4 mph 0.08 in Rain Light Rain
5:30 PM 39.2 °F 32.5 °F 37.4 °F 93% 29.35 in 4.0 mi WNW 10.4 mph - 0.07 in Rain Light Rain
5:43 PM 39.2 °F 30.5 °F 37.4 °F 93% 29.37 in 6.0 mi NW 16.1 mph - 0.10 in Rain Light Rain
5:56 PM 39.9 °F 30.2 °F 36.0 °F 86% 29.39 in 6.0 mi NW 20.7 mph 24.2 mph 0.11 in Rain Light Rain
6:24 PM 39.2 °F 28.7 °F 35.6 °F 87% 29.39 in 6.0 mi WNW 23.0 mph 29.9 mph 0.01 in Rain Light Rain
6:56 PM 39.0 °F 28.5 °F 35.1 °F 86% 29.43 in 6.0 mi NW 23.0 mph 29.9 mph 0.04 in Rain Light Rain
7:35 PM 37.4 °F 25.6 °F 35.6 °F 93% 29.43 in 4.0 mi WNW 26.5 mph 36.8 mph 0.02 in Rain Light Rain
7:40 PM 37.4 °F 25.2 °F 35.6 °F 93% 29.43 in 5.0 mi WNW 28.8 mph 35.7 mph 0.02 in Rain Light Rain
7:56 PM 37.9 °F 25.7 °F 34.0 °F 86% 29.45 in 6.0 mi NW 29.9 mph 36.8 mph 0.03 in Rain Light Rain
8:24 PM 37.4 °F 24.4 °F 35.6 °F 93% 29.45 in 5.0 mi NW 33.4 mph 41.4 mph 0.01 in Rain Light Rain
8:42 PM 37.4 °F 24.2 °F 35.6 °F 93% 29.46 in 6.0 mi NW 34.5 mph 44.9 mph 0.01 in Rain Light Rain
8:56 PM 37.9 °F 25.7 °F 35.1 °F 89% 29.49 in 5.0 mi WNW 29.9 mph 47.2 mph 0.01 in Rain Light Rain
9:52 PM 37.4 °F 25.9 °F 33.8 °F 87% 29.52 in 7.0 mi WNW 25.3 mph 31.1 mph 0.00 in Rain Light Rain
9:56 PM 37.0 °F 25.1 °F 34.0 °F 89% 29.54 in 6.0 mi NW 26.5 mph - 0.00 in Rain Light Rain
10:56 PM 37.0 °F 25.1 °F 34.0 °F 89% 29.57 in 5.0 mi NW 26.5 mph 35.7 mph 0.01 in Rain Light Rain
11:09 PM 37.4 °F 25.6 °F 33.8 °F 87% 29.55 in 4.0 mi WNW 26.5 mph 34.5 mph 0.01 in Rain Light Rain
11:45 PM 37.4 °F 25.6 °F 33.8 °F 87% 29.57 in 5.0 mi WNW 26.5 mph 36.8 mph 0.01 in   Overcast
11:56 PM 37.0 °F 24.7 °F 33.1 °F 86% 29.60 in 4.0 mi WNW 28.8 mph 35.7 mph 0.01 in   Overcast